GFSNGP_sfc_rhum_243.txt.gz
RH
62 52 46 42 35 30 38 64 82 56 36 26 28 25 48 38 35 27 24 20 21 26 26 28 25 28 27 36 38 43 43 47 62 67 76 89 93 93 95 96 97 97 96 96
86 49 47 54 45 36 31 28 30 28 29 22 19 16 17 38 32 27 27 27 23 22 19 23 25 26 26 37 42 45 44 51 57 61 72 84 90 91 94 95 96 97 98 98
90 58 63 74 51 38 32 27 27 35 28 22 30 28 38 37 35 37 36 34 34 32 33 31 30 30 36 35 37 41 45 49 52 58 70 81 89 91 92 96 98 98 99 99
88 78 97 56 31 30 34 40 43 44 42 37 35 33 38 40 37 37 35 35 35 36 37 38 36 34 38 34 35 39 41 44 49 53 63 100 97 96 99 100 100 99 99 99
91 95 67 47 38 37 43 54 46 52 46 37 35 35 36 36 37 38 40 39 42 39 37 37 36 36 37 36 35 36 38 40 46 52 58 81 100 100 100 100 100 100 100 100
92 98 94 60 47 42 44 73 35 34 42 47 46 68 54 44 43 45 45 46 44 43 41 37 34 35 35 35 43 37 43 41 42 51 56 66 86 100 100 100 100 100 100 100
97 96 75 41 40 36 81 72 37 44 46 52 67 61 56 52 48 43 44 50 44 42 40 40 41 40 39 40 40 36 49 49 51 53 57 64 90 100 100 100 100 100 100 99
92 92 88 47 44 63 52 42 45 44 55 62 62 59 57 50 50 48 48 46 50 50 48 46 46 50 47 43 45 49 46 46 52 59 60 88 100 100 100 100 100 100 100 100
77 84 52 43 50 42 43 41 39 54 53 56 55 54 53 54 53 50 49 49 46 47 49 50 50 50 50 52 49 47 56 55 52 65 77 95 100 100 100 100 100 100 100 100
70 58 48 44 41 44 45 48 44 41 44 49 61 61 57 54 52 51 48 48 46 51 56 59 57 54 57 58 59 59 61 64 75 85 86 100 100 100 100 100 100 100 100 100
66 54 52 49 48 48 47 47 52 52 53 57 57 58 56 55 54 52 51 52 57 62 64 62 60 62 65 70 74 74 81 83 83 87 95 100 100 99 99 99 98 99 99 99
78 56 61 65 68 58 55 58 58 59 57 55 57 60 59 62 65 67 73 71 71 71 72 71 69 70 69 69 70 75 80 88 94 99 100 100 100 100 100 100 100 100 100 98
57 49 65 59 57 58 57 58 61 64 63 67 65 68 69 75 74 81 77 77 76 76 74 71 71 67 68 70 75 78 83 84 87 100 100 100 100 100 100 100 100 100 100 98
43 66 74 67 64 57 58 61 64 64 65 68 66 67 72 79 79 81 80 73 71 73 80 79 77 80 77 80 83 83 80 84 88 90 98 99 100 100 100 100 100 100 100 99
55 51 53 58 59 61 61 61 67 75 73 76 77 85 92 86 92 86 80 75 80 86 86 82 86 85 77 81 88 93 92 90 91 89 90 96 99 99 99 99 99 99 99 99
49 52 54 64 67 70 67 69 77 81 79 86 89 85 96 97 87 85 85 87 97 97 96 97 96 94 96 96 96 96 97 98 98 98 97 98 98 98 99 98 98 99 99 98
66 71 71 74 79 84 84 82 80 85 91 92 96 97 97 97 93 93 96 97 98 98 97 98 97 97 97 97 97 97 98 98 98 98 98 98 98 98 98 98 98 98 98 98
60 63 66 76 89 92 88 84 86 89 93 97 98 98 98 98 98 98 97 98 98 96 97 98 98 98 97 93 97 98 98 98 99 99 99 100 99 98 98 98 98 98 98 98
65 72 73 83 89 85 88 90 96 94 98 98 99 99 99 98 98 98 97 97 98 97 96 98 98 98 98 95 98 98 98 98 99 100 100 99 99 100 99 99 99 98 98 97
71 74 80 84 78 80 87 94 99 97 98 99 99 99 98 98 99 99 98 96 98 98 98 98 98 98 98 99 98 98 99 99 99 100 100 99 99 99 99 99 98 98 98 98
82 82 93 97 98 95 95 98 100 98 98 99 99 99 99 99 98 98 97 96 93 93 96 97 98 97 98 98 98 98 98 99 99 99 99 99 99 99 99 99 99 98 98 98
83 86 99 98 99 99 94 98 100 98 98 98 99 99 99 98 98 94 97 98 94 95 97 97 98 98 98 98 98 98 98 98 99 99 99 99 98 98 99 98 98 98 98 98
83 85 87 90 89 88 92 99 100 100 99 98 99 99 99 99 99 99 97 94 95 96 98 98 98 98 98 98 98 98 98 98 99 98 99 98 98 98 98 98 98 97 97 97
78 83 84 83 83 90 94 92 100 100 100 99 99 99 99 98 99 98 98 97 95 96 98 98 98 98 98 98 98 98 98 98 99 98 98 98 98 97 96 96 97 97 97 97
75 78 84 87 87 94 90 90 95 99 99 99 98 99 99 99 100 99 96 91 94 96 98 98 98 98 98 98 98 98 98 98 99 98 98 97 98 98 97 97 97 97 97 97
64 70 67 70 90 92 93 93 94 95 98 99 99 100 100 100 99 99 97 93 94 97 98 98 99 98 98 98 98 98 98 98 98 98 97 96 97 97 97 97 97 97 97 97
77 83 83 86 90 89 92 90 97 98 98 99 99 100 100 100 99 98 98 98 96 97 98 99 98 98 97 97 97 97 97 97 97 97 97 98 98 98 98 97 97 97 97 96

GFSNGP_sfc_rhum_246.txt.gz
RH
65 58 56 53 48 43 50 63 82 54 38 31 33 31 50 51 42 42 46 43 35 35 36 34 33 32 36 44 49 51 48 51 61 66 70 80 86 88 89 90 92 96 96 96
90 58 52 56 52 48 42 35 36 36 55 43 42 41 40 37 37 36 35 36 34 35 32 33 36 37 39 42 46 48 48 53 55 59 65 72 84 89 90 90 91 94 96 98
90 64 65 61 53 45 48 54 50 68 54 43 45 45 44 41 40 39 35 34 34 35 35 36 36 36 37 39 41 42 45 49 52 57 63 73 84 91 90 92 95 94 96 98
89 75 72 48 38 44 54 48 43 40 43 44 44 40 49 45 44 43 40 38 38 40 40 38 38 36 41 38 39 41 42 43 47 52 58 98 95 94 98 100 100 100 99 99
88 96 67 55 64 62 65 55 41 43 45 48 45 45 43 45 46 47 48 45 44 45 46 46 44 41 43 42 42 44 44 45 45 51 54 64 100 100 100 100 100 100 100 99
95 97 94 65 49 40 47 81 42 43 50 51 55 75 65 53 53 52 52 54 53 50 48 49 47 50 49 48 46 44 48 46 49 51 55 60 72 98 100 100 100 100 100 100
100 96 79 55 46 45 80 74 44 46 50 56 68 64 55 58 58 53 54 56 54 57 54 52 53 53 53 56 57 50 51 50 50 49 58 63 71 94 100 100 100 100 100 100
95 99 90 52 47 60 60 55 51 46 47 62 64 64 66 61 57 54 57 57 61 64 62 60 62 64 62 62 66 63 63 61 56 54 56 55 80 99 100 99 100 100 100 100
78 81 60 56 55 52 56 55 54 51 52 60 63 61 60 62 62 61 58 56 55 56 55 57 63 61 61 60 62 61 75 79 77 74 72 71 92 100 100 99 100 99 99 98
69 60 58 52 47 51 52 59 60 61 61 63 69 68 68 65 63 61 58 59 59 67 71 73 69 65 67 66 69 83 80 83 90 91 89 89 99 99 99 99 98 99 99 99
74 60 55 58 56 60 66 63 59 62 64 69 71 73 72 75 76 78 78 74 74 77 76 74 68 67 63 64 71 75 79 85 91 93 91 94 99 98 99 98 100 99 98 99
84 59 67 67 64 68 72 70 73 74 74 70 72 76 77 75 76 76 76 72 68 70 70 67 67 67 63 61 60 65 74 84 93 96 99 99 100 100 100 100 100 100 100 99
63 54 59 69 70 63 71 74 74 75 74 78 74 77 74 74 75 80 74 72 76 77 77 77 78 76 69 69 74 79 85 85 87 84 89 96 100 99 100 100 100 100 100 100
52 60 74 65 70 68 70 69 70 74 76 72 76 76 82 88 88 86 86 84 83 85 86 83 84 86 80 78 78 82 84 88 91 92 90 91 97 98 98 99 99 100 100 99
56 60 67 64 71 73 72 74 82 84 75 74 79 84 88 92 92 97 89 84 81 86 88 87 95 95 89 89 93 94 95 97 97 97 96 92 92 94 97 99 99 100 100 100
55 59 64 70 74 80 85 89 93 80 80 85 88 90 96 97 97 95 87 90 97 97 91 93 97 96 95 96 95 95 93 94 95 94 97 98 98 96 96 99 99 99 99 98
73 72 79 78 85 92 95 92 82 84 88 90 96 97 98 98 97 97 97 94 95 95 86 95 96 96 91 97 94 95 97 97 97 98 97 97 98 98 98 98 98 98 98 99
62 68 74 86 93 95 80 79 78 91 91 94 96 98 99 99 98 98 98 98 91 91 84 91 96 97 90 96 98 97 96 96 97 98 98 98 98 98 98 98 98 98 99 99
77 82 88 90 88 85 81 83 85 94 96 96 98 98 98 99 99 98 98 98 90 92 90 92 93 97 97 97 98 98 97 97 97 98 98 99 100 100 100 100 99 99 98 98
76 78 85 89 89 90 88 88 92 96 96 98 98 98 98 98 99 98 98 98 92 93 93 94 96 98 96 98 97 94 97 98 98 98 99 100 100 100 100 99 99 99 99 99
82 85 97 99 99 98 94 94 95 98 98 98 99 98 98 98 99 99 95 95 89 90 95 96 98 97 97 97 97 95 98 98 98 99 99 99 98 99 99 99 99 99 99 98
85 87 99 98 98 94 89 92 96 99 99 99 99 98 99 98 98 98 96 97 96 92 95 97 98 98 97 98 98 98 96 96 98 98 99 99 99 99 99 99 99 99 98 98
79 84 88 93 92 89 91 92 100 100 99 99 99 99 98 98 99 99 96 93 92 93 95 98 98 98 97 96 98 98 96 95 97 98 98 98 98 98 98 97 97 96 97 98
76 78 79 83 88 91 91 87 95 99 100 99 99 99 99 99 99 99 98 93 91 95 97 98 98 98 93 96 97 97 97 97 97 97 98 98 98 98 97 97 96 95 96 97
72 73 74 77 81 85 88 90 92 94 98 97 94 96 99 99 100 99 98 94 89 95 98 98 98 98 97 96 97 98 98 98 98 97 98 98 98 98 98 97 96 97 97 97
75 83 83 82 86 91 91 93 98 94 97 98 97 100 100 99 100 99 97 96 91 94 98 98 98 98 97 97 97 98 98 97 97 98 98 98 98 98 97 97 97 97 96 97
85 92 88 84 85 88 85 95 98 98 97 98 96 99 99 99 99 99 99 98 97 96 99 99 99 98 98 97 97 98 98 97 97 97 97 98 98 98 97 97 97 97 97 96

GFSNGP_sfc_rhum_252.txt.gz
RH
69 63 62 64 60 65 58 58 76 69 71 64 67 65 59 47 45 46 49 52 47 47 48 52 62 57 48 48 51 57 52 55 60 64 64 66 72 80 85 86 87 86 88 90
84 58 62 60 65 60 66 63 64 63 62 53 50 48 49 47 44 45 51 52 47 49 45 44 45 50 56 57 58 55 52 59 60 64 64 65 67 71 70 78 86 87 90 91
82 59 59 74 56 62 54 53 59 62 60 54 53 48 51 51 48 47 47 46 47 46 46 49 49 49 51 51 52 55 57 58 61 61 66 72 70 69 68 76 92 91 96 98
88 67 63 54 49 52 52 52 50 48 50 52 53 53 52 50 53 52 48 49 51 51 52 53 54 54 57 53 56 58 57 60 63 66 72 96 81 80 84 85 86 90 92 99
90 97 60 72 61 65 66 62 52 55 52 50 50 59 54 40 45 54 58 58 58 57 60 62 62 62 64 64 61 61 64 66 64 69 71 80 100 96 94 100 100 100 97 99
95 89 93 49 54 51 59 85 57 56 58 60 61 76 68 52 56 58 63 65 64 66 61 56 58 64 66 65 69 64 67 68 65 70 74 79 85 97 94 90 97 98 100 99
99 92 73 56 51 51 76 66 55 57 62 66 73 66 57 67 70 69 69 70 64 65 69 70 68 68 72 73 73 70 72 72 74 73 80 86 89 90 91 91 93 96 99 98
95 99 92 54 50 55 54 55 59 63 65 71 75 76 76 75 74 72 71 68 71 77 77 72 75 77 79 80 78 78 78 76 75 82 83 82 93 94 93 93 95 96 97 97
77 78 56 60 52 49 56 63 66 68 74 81 81 79 78 78 80 81 80 79 79 83 76 75 74 77 79 76 73 74 77 78 78 77 80 92 96 94 95 96 98 97 99 98
67 60 62 57 54 55 60 64 78 81 80 80 85 84 84 83 83 83 83 86 63 62 67 76 78 77 78 78 79 81 82 80 82 88 88 90 94 96 100 99 98 94 95 95
74 63 59 56 57 60 65 76 79 80 81 82 87 89 90 86 85 84 71 61 62 75 87 86 81 79 77 79 79 82 80 83 84 87 87 86 84 91 91 91 92 90 88 90
78 61 59 57 58 66 79 80 83 86 86 86 88 89 75 70 71 80 82 76 82 82 77 77 74 72 70 70 73 78 85 86 89 90 88 89 90 90 82 83 83 79 86 91
63 59 63 61 65 67 77 82 81 88 89 91 75 72 75 78 81 86 83 80 76 76 74 74 74 73 69 70 81 84 92 83 93 93 92 93 92 91 94 86 81 83 83 92
62 64 65 66 72 73 74 82 84 87 87 76 74 76 83 90 85 85 82 84 83 85 81 79 83 77 72 75 76 84 89 93 93 93 93 91 91 90 89 93 95 92 87 92
68 66 62 72 76 81 87 91 93 93 77 75 74 84 89 95 93 88 89 79 86 82 85 79 83 80 73 78 85 93 95 94 93 95 94 92 93 93 92 92 94 97 95 91
61 59 71 76 77 88 92 92 89 84 78 79 80 77 89 92 97 97 91 87 95 97 92 87 85 78 78 86 94 93 92 93 95 95 94 92 92 94 92 92 93 96 97 98
79 82 80 81 86 90 90 88 86 82 82 79 83 86 90 90 92 92 92 95 98 96 93 87 83 79 89 92 96 97 95 94 95 97 93 94 95 97 97 98 97 96 97 98
74 76 74 78 88 87 86 85 89 89 86 81 89 95 97 96 97 97 98 98 98 94 91 92 86 88 92 95 98 97 96 96 97 96 94 96 95 97 97 98 97 98 97 98
80 85 86 84 86 87 88 90 89 88 90 91 96 96 97 98 97 97 98 98 98 98 89 88 88 92 94 98 98 97 95 97 95 92 93 93 96 94 97 98 98 98 98 99
88 86 86 86 88 90 90 92 95 94 92 94 96 98 98 97 97 98 98 98 98 96 91 86 90 92 96 98 93 96 96 96 96 95 95 96 96 96 96 96 98 99 99 100
86 87 96 98 98 98 98 99 97 95 91 94 98 98 96 98 98 97 98 98 90 94 91 88 91 95 97 97 94 96 97 96 96 96 97 97 97 96 96 97 97 99 99 99
87 90 98 99 99 97 94 91 94 95 95 98 98 98 99 98 97 96 96 98 94 94 90 89 93 94 97 96 93 96 95 95 95 94 96 97 97 97 97 98 98 99 99 99
79 72 73 88 90 89 91 92 92 96 95 95 96 97 98 96 97 98 97 92 99 97 91 91 94 96 96 94 94 95 95 96 96 96 97 97 98 98 98 98 98 98 98 98
72 77 78 82 84 86 93 92 93 93 98 97 96 96 98 98 96 95 92 98 99 97 93 94 96 97 97 96 95 95 96 97 96 97 97 97 98 97 97 97 97 97 98 98
78 81 84 86 88 96 93 92 94 93 94 89 89 90 94 96 99 97 99 98 99 96 94 93 97 98 97 97 97 96 97 97 98 98 97 98 97 97 97 97 97 97 97 98
81 86 86 84 89 94 94 97 97 95 96 90 92 92 94 95 98 98 98 99 99 97 95 95 97 98 98 97 96 97 97 96 97 97 98 97 97 97 97 97 97 97 97 97
79 87 86 88 87 89 94 96 97 94 92 93 93 90 98 99 99 99 98 99 99 98 97 97 98 98 98 98 97 96 97 97 97 98 98 98 97 97 97 97 97 97 97 96

GFSNGP_sfc_rhum_258.txt.gz
RH
35 33 34 37 39 37 37 35 51 48 43 39 37 34 28 25 26 26 27 27 31 32 34 37 44 42 41 50 57 58 54 51 58 62 60 65 69 69 70 72 66 55 66 66
63 33 36 44 38 37 38 39 40 37 36 31 28 24 26 25 25 28 28 28 28 29 31 35 37 44 42 42 45 49 54 59 55 57 57 62 61 61 58 64 64 61 61 60
59 34 39 64 40 35 36 35 35 37 34 27 28 29 29 27 28 31 33 33 35 35 36 37 37 39 43 44 41 46 49 48 52 57 60 67 63 63 70 72 69 68 63 57
77 42 83 39 28 28 32 32 29 30 28 27 28 26 24 29 33 36 40 41 40 38 40 38 38 39 42 38 38 41 44 48 55 60 63 99 78 82 96 82 76 70 68 64
82 62 34 29 30 36 37 35 29 29 28 27 26 28 24 34 39 42 42 41 41 38 38 37 39 41 42 41 41 43 45 50 52 57 61 66 99 100 100 100 100 99 76 71
92 78 60 32 29 27 32 47 29 30 31 30 32 35 26 38 42 40 40 40 38 39 37 40 44 44 47 46 45 47 51 50 50 51 54 58 66 85 86 74 76 76 76 73
78 77 41 24 30 30 57 41 32 29 30 35 40 37 41 43 40 36 39 44 42 42 44 44 44 47 51 50 53 54 54 54 54 52 55 55 60 66 75 71 69 72 73 68
71 83 68 25 33 42 35 34 30 31 33 47 48 47 46 40 40 42 44 44 46 46 46 49 50 54 54 54 62 64 68 66 62 62 59 56 68 72 75 80 86 85 82 82
52 46 35 30 29 30 29 29 32 35 38 49 48 42 40 43 44 44 47 52 49 49 53 52 58 62 68 68 64 65 66 65 66 67 66 69 79 82 84 81 87 86 83 83
45 31 35 33 30 29 28 34 33 39 44 47 46 41 46 45 44 46 48 54 52 52 61 66 60 60 62 62 59 62 63 64 67 75 75 81 81 86 88 91 91 88 88 87
38 30 33 30 30 32 31 34 42 45 46 46 44 45 48 46 48 52 54 55 55 62 70 65 63 64 60 61 60 58 58 59 66 74 74 83 81 87 88 85 85 87 86 84
45 29 34 28 29 29 34 36 40 46 44 44 48 48 47 53 54 58 60 61 62 66 71 70 69 67 62 59 58 63 64 70 79 87 89 90 91 92 84 86 86 86 86 88
30 30 29 29 36 35 34 39 47 46 44 46 46 46 52 61 64 72 66 66 68 70 73 70 69 70 61 59 64 64 66 68 80 87 93 92 92 91 94 93 84 84 84 84
33 32 39 37 34 34 39 46 56 48 48 51 47 48 54 65 62 66 73 73 75 79 78 75 74 74 64 65 65 66 66 79 82 86 87 88 86 87 88 92 94 94 84 85
37 34 30 29 35 44 45 45 44 43 44 49 48 54 54 56 56 61 63 66 70 76 81 76 84 75 65 70 66 66 73 81 84 87 87 86 84 88 89 89 89 89 89 83
31 33 34 41 44 50 48 43 35 40 49 52 54 53 53 53 52 50 52 57 72 75 74 93 95 68 71 65 68 76 82 86 90 89 88 85 85 87 88 87 89 88 88 86
39 44 42 43 45 48 49 35 36 42 48 53 54 54 56 55 55 52 52 58 65 78 79 96 89 70 74 70 73 85 89 88 89 93 84 85 86 89 88 92 89 88 88 89
35 34 35 38 42 50 48 50 52 53 57 58 66 75 92 93 84 97 91 86 96 100 100 100 100 99 98 87 87 89 87 88 89 86 91 92 88 85 87 90 89 91 93 95
38 46 43 37 43 47 46 49 57 64 87 75 85 97 100 100 100 100 100 100 100 100 100 100 100 94 91 99 95 92 90 90 88 86 90 91 93 90 96 97 96 99 98 100
47 49 52 53 51 52 58 79 80 79 80 78 100 100 100 100 100 100 100 100 99 94 95 94 93 84 86 96 89 89 90 91 88 90 93 93 96 100 100 95 99 100 100 100
54 60 70 83 98 100 100 100 99 100 100 100 100 100 100 100 98 100 98 79 100 85 82 95 93 77 74 80 85 89 92 96 95 93 96 96 100 100 100 100 100 100 100 100
67 82 98 96 98 100 100 99 99 97 99 100 100 100 100 86 91 88 99 98 85 86 84 96 92 83 82 92 80 92 90 88 91 94 96 98 100 100 100 100 100 100 100 100
62 60 66 95 98 94 84 91 95 100 90 95 98 96 91 81 74 82 86 75 83 88 92 96 95 92 91 94 92 99 98 100 98 97 99 100 100 100 100 100 100 100 100 100
56 56 61 62 64 57 59 68 80 90 96 83 83 100 71 75 85 79 83 91 97 99 99 100 100 93 93 99 100 100 100 100 100 100 98 95 100 100 100 100 100 100 100 100
55 56 54 50 46 50 52 54 56 60 61 56 55 58 61 63 81 88 86 90 94 94 99 99 98 96 100 100 100 100 100 100 100 99 100 100 100 100 100 100 100 100 100 100
46 48 45 42 44 43 45 48 56 56 57 65 66 80 81 72 66 70 75 83 84 88 97 100 100 100 100 96 100 100 98 93 99 98 99 100 100 100 100 100 100 100 100 100
48 59 43 44 44 45 49 51 63 69 67 78 81 78 75 77 79 74 76 93 98 100 100 100 100 99 94 100 100 98 95 94 96 95 100 100 100 100 100 100 100 100 100 100

GFSNGP_sfc_rhum_264.txt.gz
RH
27 21 19 18 20 20 27 35 45 36 27 24 24 23 21 20 20 21 23 25 28 30 33 33 36 36 36 41 44 48 52 65 70 72 69 74 74 75 76 81 79 78 75 76
74 28 20 22 19 20 21 21 21 23 24 22 19 18 20 20 22 24 24 25 26 28 28 31 31 34 37 40 42 46 48 55 60 65 69 77 76 78 75 79 78 80 80 78
66 25 26 50 30 23 22 20 22 29 27 20 19 21 21 21 28 26 23 25 25 26 27 30 31 36 39 38 38 42 46 49 52 55 60 69 65 70 77 81 83 84 83 81
82 49 69 35 20 21 22 21 19 19 19 18 20 19 21 27 29 26 26 26 27 30 34 34 33 36 40 37 39 41 45 48 50 55 58 91 79 85 92 84 82 80 81 82
85 60 38 27 23 22 26 26 19 20 19 19 18 20 32 26 25 27 27 30 35 35 36 38 43 45 44 42 42 44 48 52 52 54 56 59 81 100 100 85 85 85 74 77
84 77 70 26 17 16 18 44 20 20 21 22 21 31 39 28 26 26 31 33 37 39 38 43 48 47 48 48 48 52 54 54 53 55 56 60 66 74 78 72 76 77 78 77
79 74 46 21 17 18 48 41 23 22 22 24 28 32 33 29 24 25 29 35 37 40 42 46 47 50 53 54 58 55 55 54 54 54 57 58 65 70 74 75 75 79 79 78
74 81 74 25 20 35 32 30 27 25 27 31 30 33 29 24 25 25 26 30 36 42 45 47 50 52 54 59 62 60 61 60 57 56 54 53 70 73 71 72 78 80 80 82
59 56 31 24 26 27 31 30 28 27 23 28 37 30 26 25 26 26 27 31 35 40 45 47 50 56 64 62 60 62 61 62 62 61 64 69 75 81 84 85 90 88 87 84
50 36 29 25 22 24 25 26 23 23 24 31 33 27 25 27 28 29 30 34 38 44 48 53 54 54 63 63 66 66 64 63 64 73 77 76 76 85 85 90 91 90 90 89
40 32 25 26 23 24 24 22 20 22 24 31 28 25 27 28 30 33 35 40 44 50 54 56 56 59 58 63 67 67 66 65 68 75 76 77 81 86 88 84 87 89 88 88
53 34 37 28 27 21 25 25 23 24 28 30 24 25 28 30 34 37 44 44 46 49 54 56 59 60 58 57 67 70 69 72 80 84 82 86 88 89 84 87 86 87 87 88
32 25 28 28 24 21 22 23 24 27 27 32 26 27 30 35 39 54 42 43 45 48 51 56 59 63 60 61 69 68 67 64 73 82 83 85 88 89 93 85 82 86 86 86
24 27 29 24 26 24 23 22 34 26 29 26 26 29 36 40 42 42 42 41 41 43 48 51 52 56 60 74 69 67 66 77 79 83 80 87 86 88 89 92 95 90 80 82
22 22 26 24 22 23 24 21 28 34 32 32 34 38 39 44 44 44 43 39 38 43 46 48 54 57 61 78 72 65 67 79 82 82 82 88 87 86 89 90 90 88 84 81
21 22 22 24 27 26 29 28 38 39 34 36 40 42 43 43 43 44 43 42 49 56 52 63 61 64 67 72 77 76 82 85 86 86 85 89 85 89 91 92 92 89 89 90
31 32 32 31 31 29 31 30 36 34 33 38 41 41 42 43 46 46 51 58 62 74 73 76 88 78 90 82 83 90 90 86 84 87 87 89 88 92 91 93 92 90 90 91
24 29 31 30 31 35 39 41 40 31 41 43 58 73 94 89 80 91 93 92 90 92 90 91 99 96 95 90 91 95 91 84 87 90 89 90 90 88 93 93 90 92 93 90
24 27 31 29 32 37 42 41 40 59 78 75 74 93 93 98 93 95 99 98 89 94 97 100 98 97 85 92 96 94 87 86 89 87 88 89 93 89 91 92 94 94 92 93
29 29 35 37 37 47 53 76 73 76 78 85 99 99 96 100 96 94 90 94 90 91 92 91 91 86 90 89 93 92 87 90 90 88 90 90 93 92 92 91 91 92 94 95
34 36 54 73 97 96 97 100 100 99 100 99 99 98 96 92 88 99 96 83 87 82 90 90 84 82 89 90 93 92 89 93 92 91 92 94 95 92 92 91 92 94 95 95
54 85 93 91 90 98 98 96 98 98 99 98 98 97 96 87 83 89 97 88 88 90 89 83 81 89 92 96 92 93 92 90 90 90 93 94 93 94 93 92 93 94 95 96
78 76 80 84 86 93 86 97 99 98 95 98 99 93 86 76 77 78 81 74 80 82 81 80 83 92 94 99 97 97 96 96 96 93 96 93 94 95 96 95 94 95 96 94
72 70 74 76 78 80 74 79 84 90 97 92 92 98 77 77 93 79 75 80 84 97 92 91 94 93 95 99 99 98 95 100 98 99 93 90 94 94 95 96 95 95 94 95
68 69 70 71 68 67 68 69 71 79 78 66 64 68 67 70 82 79 80 79 81 79 82 90 91 94 100 100 100 99 100 99 99 97 93 91 94 94 95 96 96 97 96 97
58 63 57 50 54 53 57 56 62 64 57 69 74 93 92 83 78 77 78 80 75 81 85 92 93 95 98 97 99 100 100 97 97 93 93 92 94 94 96 96 96 96 98 98
52 56 48 49 47 51 55 56 66 72 73 82 86 85 83 84 85 80 81 86 88 91 88 91 90 90 90 95 98 98 100 96 94 92 93 92 94 95 97 97 97 98 98 99

GFSNGP_sfc_rhum_267.txt.gz
RH
42 29 27 29 27 31 43 46 64 50 41 34 35 28 29 26 28 28 30 32 35 38 42 42 43 46 50 52 56 59 60 73 78 80 75 81 76 77 77 76 76 82 85 81
72 40 38 30 27 25 27 33 38 34 34 29 28 26 27 25 31 29 30 31 31 32 35 38 40 49 49 52 56 60 66 67 63 65 65 72 78 84 77 75 79 81 82 82
86 41 42 58 41 27 26 26 28 39 36 26 28 27 27 39 34 32 32 33 36 41 43 44 53 54 58 55 56 59 60 63 64 64 68 74 72 82 83 88 87 85 82 82
94 66 73 44 29 26 26 26 25 27 24 28 28 37 40 38 37 35 34 38 44 49 50 57 58 57 56 55 55 61 61 61 63 67 70 85 79 86 95 87 82 84 82 81
94 90 55 36 30 31 32 34 27 26 26 26 26 42 42 34 35 39 42 47 52 53 54 61 59 59 60 59 59 59 62 63 63 68 69 77 88 92 97 90 91 87 81 83
96 96 87 52 28 24 27 54 30 27 31 30 28 59 59 38 35 42 45 52 52 52 56 60 62 60 64 67 67 67 67 65 64 64 66 72 79 86 88 83 78 73 74 78
97 93 75 39 24 28 54 52 36 31 34 35 41 54 46 38 37 36 46 53 50 54 60 61 62 63 69 73 75 68 65 66 66 67 67 70 82 82 80 75 70 78 79 78
89 94 90 42 29 40 48 47 42 39 43 48 52 48 43 36 36 36 38 46 52 57 59 65 68 70 72 69 60 60 63 60 64 69 69 71 83 85 86 81 84 83 83 83
77 77 54 47 38 48 44 41 38 40 41 48 51 42 36 38 37 37 42 47 52 59 64 67 70 72 77 77 68 74 72 71 68 69 82 81 76 82 85 82 85 87 89 90
64 53 48 46 36 40 38 39 35 35 39 47 48 40 36 38 41 43 45 53 56 60 66 71 72 70 67 60 61 62 72 63 63 72 76 72 76 86 87 87 89 89 90 90
65 51 44 40 36 39 37 34 34 32 34 44 42 36 38 42 45 49 54 57 60 67 70 71 70 71 60 58 64 73 68 62 68 76 78 81 84 89 86 85 88 92 90 87
76 50 52 46 38 39 40 35 32 34 38 41 33 37 39 48 51 56 57 57 58 62 66 68 69 70 67 61 69 76 70 75 84 88 87 85 88 85 82 85 86 85 84 87
49 42 44 41 38 31 39 35 36 39 42 37 31 38 42 52 60 60 55 55 57 59 63 65 68 69 66 77 78 78 72 68 84 86 88 88 87 88 92 84 82 84 85 86
41 38 43 39 42 36 35 39 45 39 43 41 36 42 52 55 60 58 58 54 54 57 61 63 66 69 77 83 88 88 73 81 83 84 84 86 86 89 89 92 93 89 80 84
34 39 41 35 35 34 32 32 43 46 42 49 52 55 61 61 61 59 55 53 52 59 64 64 70 78 79 88 89 89 80 84 85 85 86 88 87 89 90 88 92 91 87 82
31 33 34 35 38 40 39 37 47 50 50 58 60 60 60 60 58 57 64 70 76 87 86 90 92 92 94 94 93 94 92 94 93 84 89 92 93 88 93 92 90 91 90 84
51 43 42 42 47 45 43 44 51 46 52 60 62 61 61 67 68 81 92 96 96 97 92 88 92 87 90 91 84 96 96 97 89 89 92 91 94 90 92 95 93 91 91 91
43 44 41 42 49 51 51 58 59 56 58 64 79 82 83 78 87 95 95 91 89 91 89 88 94 96 96 92 91 93 97 98 89 91 94 94 92 89 93 94 92 94 92 90
39 42 43 42 48 53 59 62 71 78 80 81 83 89 94 97 96 92 89 94 94 97 88 98 97 99 94 92 96 98 94 94 92 92 93 94 94 90 94 93 92 93 93 94
42 44 50 49 52 62 80 83 81 82 87 87 94 96 96 91 90 92 95 97 93 94 91 92 92 93 92 94 96 94 89 95 95 96 94 93 94 94 93 90 92 94 95 94
48 49 60 72 86 83 82 81 84 93 98 93 91 96 96 95 94 99 97 99 90 89 90 93 92 90 98 94 96 95 94 92 97 95 96 95 95 92 93 92 92 92 93 93
75 87 91 89 90 96 91 88 92 94 95 97 96 97 97 92 91 94 95 98 97 93 96 96 96 90 86 95 92 98 93 88 94 94 97 96 95 93 94 93 94 94 94 94
86 86 89 88 87 93 93 92 93 93 96 98 99 97 95 95 89 96 95 86 89 94 94 94 93 91 96 93 91 95 96 92 96 98 98 97 94 92 95 94 95 95 95 94
85 83 86 89 83 79 87 95 88 89 94 93 93 96 88 96 97 88 89 90 90 94 94 96 95 97 99 96 97 93 91 98 98 99 98 96 94 92 95 95 96 94 94 94
84 85 84 77 76 81 82 90 89 88 85 89 90 92 88 89 93 95 95 96 92 94 96 95 97 96 97 89 90 89 93 98 99 99 97 95 93 94 94 95 96 96 95 97
75 76 72 72 78 80 83 85 93 94 93 94 97 96 98 94 90 93 95 94 93 96 95 97 96 96 97 92 86 89 90 95 98 98 98 96 93 94 95 95 96 96 97 98
68 71 66 69 75 78 81 86 86 91 93 94 96 96 92 95 96 96 96 96 96 98 98 96 96 94 91 95 91 92 89 96 99 99 98 97 95 95 95 96 97 97 98 98